Vorticity
nan nan nan nan nan nan nan nan nan nan nan nan nan nan nan nan nan nan nan nan nan nan nan nan nan nan nan
nan 14 9 21 20 9 6 10 13 15 11 9 9 9 8 8 8 9 9 9 9 8 9 7 7 6 nan
nan 9 10 18 19 11 9 8 11 18 13 8 7 9 8 7 8 8 8 7 8 9 11 9 8 7 nan
nan 7 8 12 20 12 10 10 9 11 15 12 9 8 7 6 6 6 8 7 6 8 9 9 10 9 nan
nan 8 8 14 15 13 13 11 9 7 10 9 8 7 13 12 8 8 5 6 7 8 8 8 9 9 nan
nan 8 6 6 13 18 15 10 8 11 8 10 11 9 9 14 17 9 7 7 6 7 9 8 7 8 nan
nan 9 9 7 7 18 22 7 7 12 11 9 11 10 10 17 19 10 8 7 7 7 7 8 7 7 nan
nan 4 5 6 9 10 13 18 16 13 7 7 11 12 11 19 18 9 9 10 8 7 7 7 7 7 nan
nan 7 5 5 5 7 11 17 17 16 5 7 11 12 13 13 20 17 9 9 9 8 7 7 7 4 nan
nan 15 12 11 10 5 8 8 9 18 13 9 8 4 11 17 17 10 18 19 10 8 8 6 -1 -1 nan
nan 13 13 11 10 10 8 7 7 7 9 11 12 2 9 15 16 16 11 10 12 19 16 9 3 -2 nan
nan 10 11 11 12 13 11 8 7 3 6 12 17 7 1 12 15 15 14 10 11 10 13 19 12 5 nan
nan 11 12 11 12 13 12 11 9 9 8 7 16 17 4 6 13 13 11 12 12 10 11 12 10 7 nan
nan 10 11 11 9 10 12 11 10 13 13 12 10 13 12 10 11 11 9 11 13 11 10 10 11 10 nan
nan 11 9 10 10 10 10 9 9 10 9 14 16 17 17 11 7 12 10 12 14 10 10 10 11 11 nan
nan 9 9 11 9 9 10 10 11 10 10 8 8 10 10 12 19 14 11 9 14 13 8 9 10 11 nan
nan nan nan nan nan nan nan nan nan nan nan nan nan nan nan nan nan nan nan nan nan nan nan nan nan nan nan
CAPE
5 12 1 11 0 0 1 0 0 7 5 0 1 3 1 5 6 15 16 18 11 13 12 8 5 2 2
5 3 3 0 0 0 0 0 3 0 0 0 0 0 0 0 0 1 3 12 14 15 17 8 4 3 3
6 3 4 37 2 0 0 0 1 0 0 1 1 0 0 0 0 0 0 3 4 7 10 10 4 3 4
9 5 9 1 2 0 1 1 0 0 0 1 0 0 0 0 0 0 0 0 0 4 3 2 2 4 5
1 3 3 2 19 0 0 0 0 2 0 0 0 0 0 0 0 0 0 0 0 0 0 0 0 1 7
0 1 1 4 1 1 0 0 0 1 1 0 0 0 0 0 0 0 0 0 0 0 0 0 0 0 0
3 1 2 4 4 0 9 0 0 0 3 0 0 0 0 0 0 0 0 0 0 0 0 0 0 0 0
9 1 3 3 4 4 2 0 0 0 0 0 0 0 0 0 0 0 0 0 0 0 0 0 0 0 0
6 3 0 0 1 2 0 0 0 0 0 0 0 0 0 0 0 0 0 0 0 0 0 0 0 0 0
0 3 4 2 5 4 3 1 0 1 0 0 0 0 1 0 0 0 0 0 0 0 0 0 0 0 0
1 0 0 0 2 5 3 2 1 1 0 0 0 0 0 1 0 0 0 0 0 0 0 0 0 0 0
6 2 1 0 0 5 3 4 4 0 0 0 0 0 0 1 0 0 0 0 0 0 0 0 0 0 0
10 9 7 5 8 12 7 4 3 1 2 1 1 0 0 0 0 0 0 0 0 0 0 0 0 0 0
11 10 5 7 3 3 11 5 3 0 1 0 1 1 0 0 0 0 0 0 0 0 0 0 0 0 0
18 6 1 2 0 0 4 7 0 0 0 1 1 3 0 0 0 0 0 0 0 0 0 0 0 0 0
25 6 5 7 5 0 0 0 2 0 0 0 1 1 1 0 0 0 0 0 0 0 0 0 0 0 0
1 7 7 8 13 10 3 0 2 2 0 0 0 0 0 0 1 0 0 0 0 0 0 0 0 0 0